Regional Weather Roundup
Issued by NWS

Home | Current Version | Previous Version | Text Only | Print | Product List | Glossary On
Versions: 1 2 3 4 5 6 7 8 9 10 11 12 13 14 15 16 17 18 19 20 21 22 23 24 25 26 27 28 29 30 31 32 33 34 35 36 37 38 39 40 41 42 43 44 45 46 47 48 49 50
000
ASUS46 KSTO 201015
RWRCA

NORTHERN AND CENTRAL CA REGIONAL WEATHER ROUNDUP
NATIONAL WEATHER SERVICE SACRAMENTO CA
300 AM PDT WED SEP 20 2017

NOTE: FAIR INDICATES FEW OR NO CLOUDS BELOW 12,000 FEET WITH NO
SIGNIFICANT WEATHER AND/OR OBSTRUCTIONS TO VISIBILITY.

CAZ001-003-201100-
NORTHWEST AREA

CITY           SKY/WX    TMP DP  RH WIND       PRES   REMARKS
CRESCENT CITY  CLOUDY    57  57 100 S12       29.89F FOG
UKIAH          CLOUDY    59  50  72 NW6       29.98F
$$

CAZ006-505>513-201100-
BAY AREA

CITY           SKY/WX    TMP DP  RH WIND       PRES   REMARKS
SANTA ROSA     CLEAR     58  47  66 SW3       29.96S
SAN RAFAEL     N/A       64  MM  MM MISG
NAPA           CLEAR     60  48  64 W10       29.95F
CONCORD        CLEAR     64  47  53 S3        29.96F
OAKLAND CITY   N/A      MM  MM  MM MISG
OAKLAND        CLEAR     62  54  74 W5        29.98F
SAN FRAN CITY  N/A       60  MM  65 MISG
SAN FRAN ARPT  CLEAR     61  49  64 NW8       29.97F
LIVERMORE      CLEAR     58  51  78 CALM      29.97F
HAYWARD        CLEAR     60  51  72 SE7       29.97F
REDWOOD CITY   N/A       56  MM  74 MISG
MOFFETT ARPT   CLEAR     59  48  67 CALM      29.99F
SAN JOSE ARPT  CLEAR     59  50  72 S3        29.98F
$$
CAZ034-037-514>518-201100-
CENTRAL COAST

CITY           SKY/WX    TMP DP  RH WIND       PRES   REMARKS
WATSONVILLE    CLEAR     54  51  90 CALM      29.98F
SALINAS        CLEAR     59  54  83 NW7       29.98S
MONTEREY       CLEAR     57  52  83 SE5       29.99F
SAN LUIS OBISP CLEAR     59  50  72 W5        29.92S
SANTA MARIA    CLEAR     55  54  96 NW7       29.92F
$$
CAZ015-016-201100-
NORTHERN SACRAMENTO VALLEY

CITY           SKY/WX    TMP DP  RH WIND       PRES   REMARKS
REDDING        CLOUDY    65  48  54 W3        29.87F
RED BLUFF      CLOUDY    64  47  53 SE5       29.89F
OROVILLE       CLOUDY    64  44  48 CALM      29.92F
$$
CAZ016>018-201100-
SOUTHERN SACRAMENTO VALLEY

CITY           SKY/WX    TMP DP  RH WIND       PRES   REMARKS
AUBURN         CLEAR     57  34  41 E5        29.95S
BEALE AFB      CLOUDY    62  41  46 E6        29.89F
LINCOLN        FAIR      52  41  66 E7        29.90F
MARYSVILLE     CLOUDY    58  46  64 E3        29.91F
SAC INTL ARPT  CLEAR     61  50  67 SE7       29.90F
MATHER AIRPORT CLEAR     54  45  71 SE9       29.92
DOWNTOWN SAC   N/A       59  MM  MM MISG
SAC EXEC ARPT  CLEAR     57  52  83 SE5       29.92F
VACAVILLE      CLEAR     63  49  60 SW6       29.93F
TRAVIS AFB     CLEAR     60  48  64 SW14      29.90F
$$
CAZ019>021-201100-
SAN JOAQUIN VALLEY

CITY           SKY/WX    TMP DP  RH WIND       PRES   REMARKS
STOCKTON       CLEAR     61  52  72 W7        29.93S
MODESTO        CLEAR     62  51  67 CALM      29.93S
MERCED         CLEAR     55  47  74 NW7       29.93S
LEMOORE        CLEAR     57  38  48 CALM      29.93S
FRESNO         CLEAR     61  47  59 NW8       29.94R
HANFORD        CLEAR     61  47  59 N6        29.94R
PORTERVILLE      N/A     54  46  74 SE5       29.95S
BAKERSFIELD    CLEAR     60  44  55 CALM      29.94S
$$
CAZ011-012-071-201100-
NORTHERN MOUNTAINS

CITY           SKY/WX    TMP DP  RH WIND       PRES   REMARKS
YREKA          MOCLDY    52  44  74 NE3       29.86F
MOUNT SHASTA   LGT RAIN  50  46  86 CALM      29.92S
ALTURAS        CLOUDY    51  40  65 SW12      29.91F
$$
CAZ011-012-071-201100-
SIERRA NEVADA MTNS

CITY           SKY/WX    TMP DP  RH WIND       PRES   REMARKS
BLUE CANYON    MOCLDY    48  33  56 CALM      30.05F
TRUCKEE        CLEAR     34  28  80 CALM      30.05F
TAHOE VLY ARPT CLEAR     48  25  40 SW9       30.04S
MAMMOTH LAKES  FAIR      43  32  65 CALM      30.07S
$$



USA.gov is the U.S. government's official web portal to all federal, state and local government web resources and services.